Jamestown, ND

1:51 PM CDT on September 24, 2017 (GMT -0500)
Jamestown Municipal

Weather History for KJMS - June, 2013

Change the Weather History Date:

Sunday, June 16, 2013

  Actual Average Record
Temperature  
Mean Temperature 69 °F 65 °F  
Max Temperature 82 °F 77 °F 103 °F (1933)
Min Temperature 56 °F 53 °F 36 °F (1945)
Degree Days  
Heating Degree Days 0 3  
Month to date heating degree days 85 69  
Since 1 June heating degree days 85 69  
Since 1 July heating degree days 9709 8985  
Cooling Degree Days 4 3  
Month to date cooling degree days 15 30  
Year to date cooling degree days 26 50  
Since 1 June cooling degree days 15 30  
Growing Degree Days 19 (Base 50)    
Moisture  
Dew Point 50 °F    
Average Humidity 54    
Maximum Humidity 77    
Minimum Humidity 30    
Precipitation  
Precipitation 0.00 in 0.10 in 2.73 in (1921)
Month to date precipitation 0.87 1.66  
Year to date precipitation 6.46 7.21  
Sea Level Pressure  
Sea Level Pressure 29.88 in    
Wind  
Wind Speed 14 mph (West)    
Max Wind Speed 30 mph    
Max Gust Speed 36 mph    
Visibility 10 miles    
Events      
T = Trace of Precipitation, MM = Missing Value Source: NWS Daily Summary

Daily Weather History Graph

Daily Weather History Graph

Search for Another Location

Airport or City:

Trip Planner

Search our weather history database for the weather conditions in past years. The results will help you decide how hot, cold, wet, or windy it might be!

Date:

Astronomy

Jun. 16, 2013 Rise Set
Actual Time 5:39 AM CDT 9:31 PM CDT
Civil Twilight 4:59 AM CDT 10:11 PM CDT
Nautical Twilight 4:05 AM CDT 11:05 PM CDT
Astronomical Twilight 2:44 AM CDT 12:26 AM CDT
Moon 1:45 PM CDT (6/16) 1:11 AM CDT (6/16)
Length of Visible Light 17h 11m
Length of Day
15h 52m
Waxing Crescent, 50% of the Moon is Illuminated
Jun 16
Waxing Crescent
Jun 16
First Quarter
Jun 23
Full
Jun 29
Last Quarter
Jul 8
New

Hourly Weather History & Observations

Time (CDT) Temp. Dew Point Humidity Pressure Visibility Wind Dir Wind Speed Gust Speed Precip Events Conditions
12:56 AM 59.0 °F 51.1 °F 75% 29.88 in 10.0 mi SW 4.6 mph - N/A   Clear
1:56 AM 60.1 °F 51.1 °F 72% 29.87 in 10.0 mi SW 8.1 mph - N/A   Clear
2:56 AM 59.0 °F 50.0 °F 72% 29.87 in 10.0 mi SW 6.9 mph - N/A   Clear
3:56 AM 57.9 °F 50.0 °F 75% 29.88 in 10.0 mi WSW 3.5 mph - N/A   Clear
4:56 AM 57.0 °F 50.0 °F 77% 29.88 in 10.0 mi WSW 9.2 mph - N/A   Clear
5:56 AM 57.0 °F 48.9 °F 74% 29.89 in 10.0 mi WSW 6.9 mph - N/A   Clear
6:56 AM 60.1 °F 50.0 °F 69% 29.90 in 10.0 mi WSW 8.1 mph - N/A   Partly Cloudy
7:56 AM 64.9 °F 52.0 °F 63% 29.89 in 10.0 mi WSW 9.2 mph - N/A   Clear
8:56 AM 71.1 °F 52.0 °F 51% 29.89 in 10.0 mi WSW 11.5 mph - N/A   Clear
9:56 AM 75.9 °F 50.0 °F 40% 29.88 in 10.0 mi West 20.7 mph 24.2 mph N/A   Clear
10:56 AM 78.1 °F 46.9 °F 33% 29.86 in 10.0 mi West 20.7 mph 27.6 mph N/A   Clear
11:56 AM 79.0 °F 46.9 °F 32% 29.86 in 10.0 mi West 17.3 mph 29.9 mph N/A   Clear
12:56 PM 80.1 °F 46.9 °F 31% 29.86 in 10.0 mi West 20.7 mph 27.6 mph N/A   Clear
1:56 PM 79.0 °F 46.0 °F 31% 29.86 in 10.0 mi WNW 25.3 mph 34.5 mph N/A   Scattered Clouds
2:56 PM 81.0 °F 48.9 °F 33% 29.86 in 10.0 mi West 19.6 mph 33.4 mph N/A   Partly Cloudy
3:56 PM 80.1 °F 50.0 °F 35% 29.86 in 10.0 mi West 21.9 mph 31.1 mph N/A   Clear
4:56 PM 80.1 °F 48.9 °F 34% 29.86 in 10.0 mi WNW 23.0 mph 29.9 mph N/A   Partly Cloudy
5:56 PM 79.0 °F 46.9 °F 32% 29.86 in 10.0 mi WNW 23.0 mph 35.7 mph N/A   Clear
6:56 PM 75.9 °F 50.0 °F 40% 29.87 in 10.0 mi WNW 24.2 mph 31.1 mph N/A   Clear
7:56 PM 73.9 °F 48.9 °F 41% 29.87 in 10.0 mi WNW 19.6 mph 28.8 mph N/A   Mostly Cloudy
8:56 PM 71.1 °F 51.1 °F 49% 29.88 in 10.0 mi NW 13.8 mph 21.9 mph N/A   Clear
9:56 PM 66.9 °F 51.1 °F 57% 29.89 in 10.0 mi NW 9.2 mph - N/A   Clear
10:56 PM 63.0 °F 53.1 °F 70% 29.91 in 10.0 mi West 6.9 mph - N/A   Clear
11:56 PM 63.0 °F 53.1 °F 70% 29.92 in 10.0 mi West 6.9 mph - N/A   Clear